Content
SEND FEEDBACK

Daily
Averages
Monthly
Summary
United States of America

BODLE, WASHINGTON


Home > North America > United States > Washington
Elevation: 2700 feet     Latitude: 48 49N     Longitude: 118 54W

WEATHER
 
SELECT A DAY
Number of Records: 189,521;   Date Range: 1/1/95 - 11/20/14
 
SHARE

PRINT THIS DATA

[ ← Previous Day ]
WEATHER ALMANAC - JANUARY 31, 2013
[ Next Day → ]
[ °C ]   °F
Weather ElementAverageHighLow
Temperature37.1 °F61 °F (2:00 am) (12:41 am)
Dewpoint33.2 °F57.2 °F (8:00 am) (7:00 pm)
Humidity79.8 %94 % (3:00 pm)56 % (11:00 pm)
Wind Speed22.5 mph32.2 mph (3:21 pm)
Wind Gust41.4 mph (4:12 pm)
Weather ElementAverage
Visibility12 mi
Wind DirectionSSW (208.5 °)

Weather ElementTotal
Precipitation---
Heating Degree Days34.5 (Base 65)
Averaged from 40 records on January 31, 2013
WEATHER CONDITIONS BREAKOUT
WIND DIRECTION BREAKOUT
WEATHER BY HOUR - JANUARY 31, 2013
[ °C ]   °F
Local TimeTemperatureDewpointHumidityBarometerVisibilityWind DirectionWind SpeedGust SpeedPrecipitationEventsConditions
12:41 AM0.0 °F0.0 °F15.0 miSSW (200°)20.7 mph27.6 mphOvercast
1:00 AM59.0 °F55.4 °F88 %29.55 in15.0 miSW (220°)20.7 mph31.1 mphOvercast
2:00 AM61.0 °F55.0 °F75 %29.55 in15.0 miSW (220°)23.0 mphPartly Cloudy
2:00 AM60.8 °F55.4 °F82 %29.55 in15.0 miSW (220°)27.6 mph40.3 mphOvercast
3:00 AM60.8 °F53.6 °F77 %29.54 in15.0 miSSW (210°)20.7 mph29.9 mphOvercast
4:00 AM60.8 °F55.4 °F82 %29.52 in15.0 miSSW (200°)19.6 mph31.1 mphOvercast
5:00 AM59.0 °F55.4 °F88 %29.49 in15.0 miSSW (200°)16.1 mph25.3 mphOvercast
5:10 AM0.0 °F0.0 °F12.0 miSSW (200°)17.3 mph25.3 mphRainLight Rain
6:00 AM60.8 °F55.4 °F82 %29.46 in15.0 miSSW (200°)16.1 mph32.2 mphRainLight Rain
6:17 AM0.0 °F0.0 °F15.0 miSSW (210°)19.6 mph33.4 mphOvercast
7:00 AM60.8 °F53.6 °F77 %29.43 in15.0 miSSW (200°)19.6 mph33.4 mphOvercast
7:33 AM0.0 °F0.0 °F15.0 miSSW (200°)18.4 mph28.8 mphOvercast
8:00 AM61.0 °F57.0 °F81 %29.37 in15.0 miSSW (200°)20.7 mphPartly Cloudy
8:00 AM60.8 °F57.2 °F88 %29.36 in15.0 miSSW (200°)15.0 mph34.5 mphMostly Cloudy
9:00 AM60.8 °F53.6 °F77 %29.33 in15.0 miSouth (190°)27.6 mph40.3 mphOvercast
9:11 AM0.0 °F0.0 °F15.0 miSouth (190°)28.8 mph40.3 mphRainLight Rain Showers
10:00 AM60.8 °F53.6 °F77 %29.31 in15.0 miSouth (190°)23.0 mph33.4 mphRainLight Rain Showers
11:00 AM59.0 °F53.6 °F82 %29.25 in12.0 miSouth (190°)26.5 mph35.7 mphRainLight Rain Showers
11:42 AM0.0 °F0.0 °F3.0 miSouth (190°)28.8 mph36.8 mphRainLight Rain
12:00 PM59.0 °F55.4 °F88 %29.18 in3.0 miSouth (180°)25.3 mph39.1 mphRainLight Rain
12:28 PM0.0 °F0.0 °F5.0 miSouth (180°)24.2 mph35.7 mphRainLight Rain
1:00 PM59.0 °F55.4 °F88 %29.07 in6.0 miSouth (180°)25.3 mph39.1 mphRainLight Rain
1:21 PM0.0 °F0.0 °F3.0 miSouth (180°)24.2 mph38.0 mphRainLight Rain
2:00 PM58.0 °F55.0 °F86 %29.00 in3.0 miSouth (180°)26.5 mphRainLight Rain
2:00 PM59.0 °F55.4 °F88 %28.99 in3.0 miSouth (180°)28.8 mph40.3 mphRainLight Rain
3:00 PM57.2 °F55.4 °F94 %28.94 in3.0 miSSW (200°)20.7 mph35.7 mphRainLight Rain
3:21 PM0.0 °F0.0 °F6.0 miSW (220°)32.2 mph40.3 mphRainLight Rain Showers
4:00 PM55.4 °F50.0 °F82 %28.99 in12.0 miSW (220°)25.3 mph39.1 mphRainLight Rain Showers
4:12 PM0.0 °F0.0 °F15.0 miSW (220°)21.9 mph41.4 mphMostly Cloudy
5:00 PM51.8 °F44.6 °F76 %28.99 in15.0 miSW (220°)26.5 mph39.1 mphMostly Cloudy
6:00 PM46.4 °F42.8 °F87 %29.08 in15.0 miSW (230°)26.5 mph41.4 mphMostly Cloudy
7:00 PM44.6 °F35.6 °F71 %29.11 in15.0 miSW (230°)23.0 mph32.2 mphMostly Cloudy
7:32 PM0.0 °F0.0 °F15.0 miSW (230°)17.3 mph29.9 mphRainLight Rain Showers
8:00 PM44.0 °F36.0 °F66 %29.13 in12.0 miSW (230°)19.6 mphRainLight Rain Showers
8:00 PM42.8 °F37.4 °F81 %29.13 in12.0 miSW (230°)19.6 mph27.6 mphRainLight Rain Showers
9:00 PM42.8 °F33.8 °F70 %29.16 in12.0 miWSW (250°)21.9 mph29.9 mphRainLight Rain Showers
9:25 PM0.0 °F0.0 °F15.0 miSW (230°)21.9 mph31.1 mphRainLight Rain Showers
10:00 PM41.0 °F30.2 °F65 %29.18 in15.0 miWSW (240°)17.3 mph32.2 mphMostly Cloudy
11:00 PM39.2 °F24.8 °F56 %29.21 in15.0 miWSW (240°)23.0 mph32.2 mphMostly Cloudy
11:31 PM0.0 °F0.0 °F12.0 miWSW (240°)20.7 mph34.5 mph
Hourly data recorded from CYZX, located miles away from Bodle, Washington







STORIES FROM OUR PARTNERS